Regional Weather Roundup
Issued by NWS Wakefield, VA

Home | Current Version | Previous Version | Graphics & Text | Print | Product List | Glossary On
Versions: 1 2 3 4 5 6 7 8 9 10 11 12 13 14 15 16 17 18 19 20 21 22 23 24 25 26 27 28 29 30 31 32 33 34 35 36 37 38 39 40 41 42 43 44 45 46 47 48 49 50
000
ASUS41 KAKQ 050515
RWRAKQ

REGIONAL WEATHER ROUNDUP
NATIONAL WEATHER SERVICE WAKEFIELD VA
100 AM EDT SUN JUL 05 2015

Note: "fair" indicates few or no clouds below 12,000 feet with no
significant weather and/or obstructions to visibility. * = Denotes
station may not report precipitation (e.g., rain,snow,etc.),
thunder or fog.

VAZ042-051-052>054-056-050600-
NORTHERN VIRGINIA

CITY           SKY/WX    TMP DP  RH WIND       PRES   REMARKS
WASH NATIONAL  CLOUDY    75  70  84 N3        30.05S HAZE
DULLES         MOCLDY    69  67  93 CALM      30.05S FOG
FORT BELVOIR   FOG       70  68  94 CALM      30.05R VSB 3/4
QUANTICO       PTCLDY    71  67  87 NW6       30.05S
FREDERICKSBRG* CLEAR     70  70 100 CALM      30.04R FOG
STAFFORD*        N/A     66  65  97 CALM      30.08S FOG
WARRENTON      FOG       67  67 100 CALM      30.05R VSB<1/4
CULPEPER*      FOG       65  65 100 CALM      30.06S VSB 1/2
MANASSAS*        N/A    N/A N/A N/A MISG        N/A
LEESBURG*      MOCLDY    68  68 100 N6        30.07S FOG
WINCHESTER     MOCLDY    70  68  94 CALM      30.07R FOG
FRONT ROYAL*   CLOUDY    66  66 100 CALM      30.06R VSB 1/4
LURAY*         MOCLDY    68  68 100 CALM      30.07S FOG
$$

VAZ048-049-060>072-079>083-050600-
CENTRAL AND SOUTH CENTRAL VIRGINIA

CITY           SKY/WX    TMP DP  RH WIND       PRES   REMARKS
RICHMOND       PTCLDY    71  69  93 CALM      30.03S FOG
CHESTERFIELD*  NOT AVBL
PETERSBURG*    PTCLDY    70  70 100 CALM      30.05R
HANOVER        FOG       68  68 100 CALM      30.05R VSB 1/2
TAPPAHANNOCK*  CLEAR     69  66  90 CALM      30.04S
QUINTON*       NOT AVBL
CHARLOTTSVILLE PTCLDY    69  67  93 CALM      30.06R
GORDONSVILLE*  FOG       66  66 100 CALM      30.05S VSB 1
ORANGE*        CLEAR     68  66  94 CALM      30.07S FOG
LOUISA*          N/A     66  66 100 CALM      30.04F FOG
BUMPASS*       FAIR      68  68  99 N3        30.04S
FARMVILLE*     MOCLDY    69  69 100 CALM      30.04S
CREWE*         FAIR      69  68  96 CALM      30.04S
FORT PICKETT*  FAIR      70  69  98 CALM      30.05S
CHASE CITY*    MOCLDY    73  73 100 CALM      30.05S
CLARKSVILLE*   FAIR      68  68 100 CALM      30.03F
SOUTH HILL*    MOCLDY    72  69  89 CALM      30.09S
LAWRENCEVILLE* NOT AVBL
EMPORIA*         N/A     70  70 100 CALM      30.04S
$$

VAZ088>098-050600-
SOUTHEAST VIRGINIA

CITY           SKY/WX    TMP DP  RH WIND       PRES   REMARKS
NORFOLK        CLEAR     74  70  87 CALM      30.03R
VIRGINIA BEACH MOCLDY    75  69  81 CALM      30.03R
NORFOLK NAVAL  MOCLDY    72  71  97 CALM      30.04S
WEST POINT*    CLEAR     71  68  92 CALM      30.04S
SALUDA*        FAIR      69  68  98 CALM      30.02R
NEWPORT NEWS   CLEAR     72  69  90 CALM      30.03R
LANGLEY AFB    PTCLDY    73  70  92 CALM      30.01S
FORT EUSTIS    PTCLDY    72 N/A N/A CALM      30.01S
WILLIAMSBURG*  PTCLDY    73  72  94 CALM      30.04R
HR EXEC AP*    FAIR      70  66  88 CALM      30.06R
FRANKLIN*      PTCLDY    72  70  94 CALM      30.03S
WAKEFIELD      LGT RAIN  73  70  90 CALM      30.03S
$$

VAZ020-022-025-037-045-050600-
WEST CENTRAL AND SOUTHWEST VIRGINIA

CITY           SKY/WX    TMP DP  RH WIND       PRES   REMARKS
STAUNTON*      PTCLDY    70  66  88 CALM      30.09F
WAYNESBORO*    FAIR      67  66  96 CALM      30.09S
HOT SPRINGS VA PTCLDY    62  62 100 CALM      30.18S
LYNCHBURG      PTCLDY    68  68 100 CALM      30.07S
DANVILLE       MOCLDY    71  69  93 S3        30.04F
SOUTH BOSTON*  FAIR      70  68  95 MISG      30.04F
MARTINSVILLE   MOCLDY    70  70 100 CALM      30.10R FOG
ROANOKE        PTCLDY    70  67  90 CALM      30.09S
BLACKSBURG     PTCLDY    65  65 100 CALM      30.15S FOG
DUBLIN*        MOCLDY    67  67 100 S3        30.14R FOG
MARION*        CLOUDY    66  64  96 W3        30.18R FOG
HILLSVILLE*    MOCLDY    65  64  94 SW3       30.15R
RICHLANDS*     FOG       66  66 100 CALM      30.15S VSB 1/2
WISE*          DRIZZLE   66  66 100 CALM      30.15F
ABINGDON*      CLOUDY    69  69 100 CALM      30.13S FOG
$$

MDZ021>025-VAZ099-100-050600-
SOUTHERN MARYLAND AND THE DELMARVA PENINSULA

CITY           SKY/WX    TMP DP  RH WIND       PRES   REMARKS
PATUXENT RIVER PTCLDY    71  69  93 W6G26     30.02R
BAY BRIDGE APT   N/A     70  68  94 CALM      30.04R
LEONARDTOWN    CLOUDY    70  68  94 CALM      30.05R
DOVER          PTCLDY    69  63  80 CALM      30.02R
GEORGETOWN     MOCLDY    69  67  93 N3        30.05R
EASTON         MOCLDY    70  70 100 CALM      30.07R FOG
CAMBRIDGE      PTCLDY    72  68  88 CALM      30.03R
SALISBURY      CLOUDY    70  70 100 NW5       30.03R FOG
OCEAN CITY     MOCLDY    69  67  93 NW6       30.03R FOG
WALLOPS ISLAND MOCLDY    73  73 100 N3        30.02R FOG
ACCOMACK*      MOCLDY    70  70 100 CALM      30.02S FOG
$$

NCZ012>017-030>032-050600-
NORTH CENTRAL AND EASTERN NORTH CAROLINA

CITY           SKY/WX    TMP DP  RH WIND       PRES   REMARKS
ROANOKE RAPIDS FAIR      72  70  94 SW3       30.03S
RALEIGH        MOCLDY    74  69  85 SW5       30.06R
ELIZABETH CITY MOCLDY    76  74  93 SW6       30.03R
AHOSKIE*       MOCLDY   N/A N/A N/A CALM      30.04S
EDENTON*       MOCLDY    80  71  73 SW9       30.04R
CURRITUCK*     MOCLDY    76  72  87 CALM      30.04R
KILL DEVIL HLS MOCLDY    79  71  76 SW8       30.03R
MANTEO         MOCLDY    77  74  89 SW7       30.05R
CAPE HATTERAS  PTCLDY    78  75  90 SW15G21   30.07R
TARBORO*         N/A     77  69  76 SW7       30.05R
GOLDSBORO      MOCLDY    74  72  91 S2        30.03S
WASHINGTON     PTCLDY    78  70  76 SW6       30.05S
GREENVILLE     HVY RAIN  72  72 100 W10G20    30.08R
NEW BERN       CLEAR     78  72  81 SW7       30.07S
WILMINGTON     PTCLDY    80  74  81 SW9       30.07S
$$

VAZ048-050600-
ELSEWHERE

CITY           SKY/WX    TMP DP  RH WIND       PRES   REMARKS
HARRISBURG PA  MOCLDY    65  63  93 CALM      30.06R FOG
BALTIMORE      MOCLDY    67  65  93 CALM      30.04R FOG
ANNAPOLIS      PTCLDY    71  66  84 NW3       30.03R
ANDREWS AFB    MOCLDY    68  68 100 N5        30.04S FOG
PHILADELPHIA   CLOUDY    71  57  61 CALM      30.05R
HENDERSON NC   PTCLDY    70  67  90 CALM      30.05F
GREENSBORO     MOCLDY    74  67  78 W3        30.07R
ROCKY MOUNT    MOCLDY    75  69  81 S7        30.04R
$$

VAZ100-050600-
MARINE

STATION/POSITION TIME  TEMP    WIND        PRES    WAVE   SWELL
                       AIR SEA DIR/SP/G            HT/PER HT/PER
                 (UTC) (F)     (DEG/KT/KT) (MB)    (FT/S) (FT/S)
BRANDYWINE LGT   0400   71 72  100/  4/  4 1016.7R
CAPE MAY NJ      0400   71 77   40/  2/  3 1016.1R
LEWES DE         0400   71 73  110/  3/  4 1016.2R
15NM E FENWICK I 0450   73 73              1016.1R   4/ 8
OCEAN-CITY-INLET 0400   73 74  140/  3/  4 1015.8R
WACHAPREAGUE VA  0400   71 80  340/  2/  2 1016.1R
GOOSES REEF MD   0500   74 77  190/  4/  6 1017.7R
COVE POINT MD    0400   72     170/  3/  4 1017.1R
SOLOMONS ISLAND  0400      79                N/A
BISHOPS HEAD MD  0400   73     110/  4/  5 1016.2R
CAMBRIDGE MD     0400   70 79   CALM  /  2 1016.5R
LEWISETTA VA     0400   71 79  300/  5/  6 1016.4R
RAPPAHANNOCK LGT 0400          300/ 10/ 12 1016.6R
STINGRAY PT      0500   74 80  270/  4/  6 1016.7R   1/ 3
YORK RVR RNG VA  0400   75     210/  6/  9 1015.9S
YORKTOWN VA      0400   74 80  220/  2/  3 1016.2S
JAMESTOWN VA     0500   73 82   70/  2/  4   N/A
DOMINION TERM VA 0400   74      70/  2/  3 1016.5R
KIPTOPEKE VA     0400      84  300/  8/ 10   N/A
CHES BAY BRIDGE  0400   75 78  320/  6/  7 1016.1S
CAPE HENRY VA    0400   75     330/  6/  8   N/A
CHESAPEAKE LGHT  0400   76     310/ 10/ 11 1017.1R
WILLOUBY STN VA  0400   75      10/  3/  3 1017.5R
CAPE HENRY BUOY  0428      78                N/A     3/ 5
1ST LANDING BUOY 0500      75              1016.4R   2/ 4
CAPE CHARLES BUO 0426      77                N/A     3/ 7   2/ 7
OFFSHORE WE BUOY 0411      76                N/A     4/ 7   3/ 7
64NM E OF VA BCH 0450   78 76  280/ 14/ 16 1016.3R   5/ 7   3/ 7
DUCK PIER NC     0400   80 73  230/ 11/ 13   N/A
44100 DUCK FRF   0424      77                N/A     2/ 8
44056 DUCK FRF   0411      77                N/A     2/ 6
OREGON INLET NC  0400   80 82  220/ 14/ 16 1016.8R
HATTERAS NC      0400   79 80  220/ 13/ 17 1017.5R
DIAMOND SHLS NC  0450   81 81  240/ 19/ 25 1017.4R   6/ 6   2/14
CAPE LOOKOUT NC  0500   80     230/ 11/ 14 1018.2S
$$


USA.gov is the U.S. government's official web portal to all federal, state and local government web resources and services.